Orbital Elements at Epoch 2459200.5 (2020-Dec-17.0) TDB
Reference: JPL 20 (heliocentric ecliptic J2000)
Element | Value | Uncertainty (1-sigma) | Units |
e | .1768786620396029 | 2.8897e-08 | |
a | 2.149954646104546 | 8.4016e-09 | au |
q | 1.769673544855746 | 6.1389e-08 | au |
i | 1.940402753675276 | 4.8339e-06 | deg |
node | 252.8220978259897 | 0.00012868 | deg |
peri | 41.68557371926426 | 0.00013023 | deg |
M | 94.55221108636175 | 2.2232e-05 | deg |
tp | 2458898.079266108628 (2020-Feb-18.57926611) | 6.9917e-05 | TDB |
period | 1151.442816090819 3.15 | 6.7494e-06 1.848e-08 | d yr |
n | .3126512189482498 | 1.8327e-09 | deg/d |
Q | 2.530235747353346 | 9.8876e-09 | au |
|
| | Orbit Determination Parameters
Additional Information
|